Location: Kaseke
(18.0171°S, 31.0526°E)
Time: 12:26:20
(UTC+00:00)

Atlas Centaur 2 - Pass Details

Date: 14 July 2020
Orbit: 459 x 1310 km, 30.4° (Epoch: 08 August)

Event Time Altitude Azimuth Distance (km) Brightness Sun altitude
Exits shadow 03:32:35 15° 235° (SW) 2,935 4.4 -13.1°
Maximum altitude 03:38:35 33° 180° (S) 1,938 3.9 -11.7°
Drops below altitude 10° 03:45:14 10° 118° (ESE) 2,956 5.7 -10.2°
Sets 03:48:06 0° 108° (ESE) 3,785 6.5 -9.6°
